Location: Unspecified
(45.3999°N, 88.1269°W)
Time: 00:04:21
(UTC-06:00)

Cosmos 2058 - Visible Passes

Search period start: 22 January 2019 00:00
Search period end: 01 February 2019 00:00
Orbit: 562 x 585 km, 82.5° (Epoch: 20 January)

Date Brightness Start Highest point End Pass type
(mag) Time Alt. Az. Time Alt. Az. Time Alt. Az.
22 Jan 3.0 06:10:22 10° N 06:14:29 80° E 06:18:34 10° SSE visible
22 Jan 4.9 18:36:37 10° SSE 18:37:33 16° SSE 18:37:33 16° SSE visible
23 Jan 6.2 04:39:36 10° ENE 04:40:03 10° ENE 04:40:29 10° ENE visible
23 Jan 2.8 06:13:26 10° NNW 06:17:33 77° W 06:21:38 10° S visible
23 Jan 3.8 18:39:28 10° SSE 18:42:05 33° SE 18:42:05 33° SE visible
23 Jan 6.0 20:18:02 10° WSW 20:18:24 11° WSW 20:18:24 11° WSW visible
24 Jan 5.9 04:41:17 10° NE 04:43:16 13° ENE 04:45:15 10° E visible
24 Jan 2.9 06:16:34 10° NNW 06:20:36 58° W 06:24:37 10° S visible
24 Jan 2.8 18:42:23 10° S 18:46:28 62° E 18:46:41 61° ENE visible
24 Jan 6.1 20:22:00 10° W 20:22:59 12° W 20:22:59 12° W visible
25 Jan 5.7 04:43:46 10° NNE 04:46:28 17° ENE 04:49:09 10° ESE visible
25 Jan 3.2 06:19:43 10° NNW 06:23:37 43° W 06:27:30 10° SSW visible
25 Jan 2.7 18:45:23 10° S 18:49:32 83° E 18:51:15 34° NNE visible
26 Jan 5.4 04:46:28 10° NNE 04:49:38 21° ENE 04:52:48 10° ESE visible
26 Jan 3.6 06:22:57 10° NNW 06:26:38 33° W 06:30:18 10° SSW visible
26 Jan 3.0 18:48:28 10° SSW 18:52:35 75° W 18:55:49 16° N visible
27 Jan 4.9 04:49:16 10° NNE 04:52:47 27° ENE 04:56:18 10° SE visible
27 Jan 3.9 06:26:15 10° NNW 06:29:38 25° W 06:33:00 10° SW visible
27 Jan 3.5 18:51:37 10° SSW 18:55:40 56° W 18:59:45 10° N visible
28 Jan 4.5 04:52:09 10° N 04:55:56 35° ENE 04:59:42 10° SE visible
28 Jan 4.2 06:29:37 10° NW 06:32:36 20° W 06:35:35 10° SW visible
28 Jan 4.1 18:54:51 10° SSW 18:58:47 42° WNW 19:02:43 10° N visible
29 Jan 3.9 04:55:28 12° N 04:59:03 45° ENE 05:03:00 10° SSE visible
29 Jan 4.5 06:33:10 10° NW 06:35:34 15° W 06:37:58 10° WSW visible
29 Jan 4.2 17:22:03 10° SE 17:25:11 21° E 17:28:19 10° NE visible
29 Jan 4.6 18:58:11 10° SW 19:01:54 32° WNW 19:05:39 10° N visible
30 Jan 3.3 04:59:37 22° N 05:02:09 61° E 05:06:13 10° SSE visible
30 Jan 4.7 06:37:02 10° WNW 06:38:30 12° W 06:39:59 10° WSW visible
30 Jan 3.8 17:24:40 10° SSE 17:28:10 27° E 17:31:40 10° NNE visible
30 Jan 5.1 19:01:37 10° SW 19:05:03 25° WNW 19:08:30 10° NNW visible
31 Jan 2.9 05:03:55 42° N 05:05:14 81° E 05:09:21 10° S visible
31 Jan 3.5 17:27:24 10° SSE 17:31:10 35° E 17:34:56 10° NNE visible
31 Jan 5.5 19:05:09 10° WSW 19:08:12 20° WNW 19:11:16 10° NNW visible
